Погода в Чистом Поле

Россия / Красноярский край     55°14′51″N   91°11′03″E
темп.,
°C
ветер,
м/с
пор.,
м/с
влажн.,
%
обл.,
%
осадки,
мм/ч
давл.,
гПа
погр.,
м
9 мая, вс
вс901:00+6зсз4777100 0.7 1014906
04:00+4зсз597598 0.1 1015797
07:00+4сз587423 0.1 1016855
10:00+5сз6753100 0.1 10171635
13:00+7сз5648100 0.1 10171870
16:00+8ссз564693 0.1 10171614
19:00+7ссз565197 0.3 10181323
22:00+4ссз36745 0.1 1020128
10 мая, пн
пн1001:00+2с22885 0.1 102142
04:00+1ссз22935 0.0 102226
07:00+3ссз248230 0.0 1024228
10:00+8ссв345943 0.0 10231120
13:00+10св334999 0.1 10231591
16:00+10всв344899 0.0 10221339
19:00+11в35495 0.0 10221341
22:00+7всв11635 0.0 102110
11 мая, вт
вт1101:00+5всв22730 0.0 102017
04:00+4св22840 0.0 101932
07:00+6всв411764 0.0 1018415
10:00+11в78501 0.0 1016901
13:00+15в56340 0.0 10141555
16:00+17всв6530100 0.0 10122111
19:00+15всв5840100 0.0 1013896
22:00+11св4105499 0.0 1014278
12 мая, ср
ср1201:00+9св4106426 0.0 1014263
04:00+7св5107564 0.0 1015362
07:00+8св597851 0.0 1016505
10:00+11всв676243 0.0 10161086
13:00+13в675393 0.3 10161626
16:00+11всв785745 0.0 10171035
19:00+10всв565610 0.0 10181082
22:00+6ссв23670 0.0 101946
13 мая, чт
чт1301:00+5с22700 0.0 102032
04:00+4с22710 0.0 101919
07:00+6ссв23570 0.0 1020171
10:00+11всв35402 0.0 10191258
13:00+14в33315 0.0 10171690
16:00+16вюв1128100 0.0 10141950
19:00+15з2229100 0.0 10131838
22:00+11ююз223852 0.0 101311